Dewpoint
38 39 40 41 40 44 45 48 50 51 49 46 44 41 40 40 39 39 42 44 44 44 44 43 43 44 43 45 47 48 47 48 47 46 46 44 43 42 39 40 38 37 37
34 37 39 41 41 42 42 43 43 43 41 39 40 41 42 41 42 42 42 41 42 42 41 40 40 39 41 43 44 46 46 46 47 45 45 42 42 41 41 40 41 40 38
32 35 39 41 42 42 41 41 41 42 43 42 40 40 39 39 39 39 41 41 42 41 40 39 39 40 41 40 42 42 42 42 43 45 44 41 39 39 40 41 41 41 41
33 35 38 40 42 43 42 41 41 41 41 43 41 43 42 41 41 42 41 41 40 37 36 34 35 38 40 41 41 39 43 42 41 41 41 43 44 42 41 41 41 41 40
36 37 37 40 42 43 43 43 40 41 42 43 43 43 42 40 38 38 37 36 33 33 32 33 35 38 40 41 41 42 41 40 40 39 42 42 42 42 41 41 41 41 41
36 37 38 38 40 42 43 42 41 40 40 41 41 40 39 38 35 35 34 33 34 33 33 33 36 38 39 39 40 43 42 42 41 41 41 39 39 38 37 36 38 39 43
37 36 37 38 40 41 42 42 40 40 39 39 38 38 37 36 35 35 35 36 34 32 31 34 37 37 39 41 41 40 40 40 39 39 38 38 36 36 35 34 34 34 38
36 36 36 38 39 40 41 42 41 38 37 37 38 38 38 37 38 38 38 36 33 32 34 36 40 41 42 41 41 41 40 39 39 38 38 37 37 37 36 35 34 33 35
35 35 36 38 38 38 38 40 40 37 37 38 38 39 40 38 38 38 36 34 33 33 37 40 39 39 39 39 39 40 40 40 37 38 39 38 37 37 37 37 35 33 29
35 36 36 36 37 38 37 38 36 36 37 38 38 37 37 36 36 36 33 32 34 39 38 39 38 38 38 38 37 38 38 37 38 38 38 36 35 34 34 33 32 33 32
36 35 35 36 37 36 36 34 36 36 34 31 30 31 33 34 34 32 32 34 36 36 37 37 38 36 35 34 34 34 33 32 30 30 30 28 27 24 22 23 27 28 27
34 34 35 36 36 34 33 33 33 27 26 26 27 29 32 32 31 33 35 35 35 36 35 37 36 34 33 29 27 28 25 24 24 25 23 20 17 18 19 19 18 19 19
33 34 35 36 35 33 32 29 24 25 27 28 29 30 30 33 35 35 36 34 35 35 35 35 35 31 28 26 26 24 22 21 20 19 19 18 19 19 19 20 19 18 17
33 34 35 35 34 31 29 24 23 26 29 29 29 28 32 36 36 39 38 38 36 34 34 32 27 24 21 20 20 19 21 20 19 19 19 19 20 20 19 19 19 18 17
33 35 36 34 31 29 26 25 25 27 29 29 28 28 33 34 36 36 35 33 31 25 23 21 20 20 19 18 21 21 21 18 17 17 18 18 20 22 21 18 18 18 18
36 37 33 30 30 26 26 24 24 27 29 28 27 28 29 28 28 28 26 24 24 24 21 19 19 19 18 24 23 22 20 18 18 18 18 18 19 19 23 24 25 24 20
36 31 30 31 30 27 26 23 24 24 26 27 25 27 27 27 27 26 25 24 22 19 18 18 18 18 19 22 22 22 20 18 19 20 20 19 17 18 19 23 24 25 27
32 30 33 31 27 27 26 23 23 22 23 23 25 25 27 27 25 22 21 19 17 18 18 18 18 19 18 23 23 22 20 20 19 20 20 18 18 20 22 23 23 23 24
32 33 31 28 28 26 25 24 23 20 20 21 23 24 26 22 21 20 18 18 18 18 17 18 21 21 22 24 24 21 21 20 20 19 22 22 23 23 24 28 27 23 24
32 26 25 25 25 26 25 25 23 21 19 19 20 23 22 21 20 18 17 18 17 16 19 23 21 22 22 24 22 21 21 21 21 20 19 21 22 25 27 27 25 23 23
23 20 20 23 24 25 24 23 23 21 19 20 23 24 22 21 19 17 18 17 16 19 27 29 25 23 25 25 22 22 21 19 23 21 22 22 28 26 24 24 23 23 26
20 20 21 20 20 21 21 21 23 21 22 25 24 24 22 20 18 18 18 17 17 20 26 27 25 24 24 21 20 21 19 22 21 21 22 27 23 24 24 24 24 25 23
14 15 16 17 18 19 19 19 24 28 30 26 25 24 23 19 18 18 17 17 18 20 24 22 22 22 20 19 20 18 19 21 21 23 24 22 26 24 25 26 24 24 25
13 14 16 17 18 18 17 18 22 29 30 25 25 25 22 20 20 19 17 18 20 22 21 19 19 18 18 17 18 18 21 20 20 21 22 26 25 25 26 26 26 26 27
12 13 16 17 17 18 18 19 20 27 26 27 29 25 21 20 24 22 20 20 21 22 19 17 17 17 17 16 16 18 19 20 20 21 24 22 21 20 22 23 23 24 23
16 16 16 18 19 20 21 23 29 27 28 30 29 22 23 24 24 22 20 22 23 21 20 19 18 17 15 14 16 17 16 18 18 20 19 19 19 18 19 20 20 21 21
Wind_Speed
13 14 9 6 3 4 1 5 3 7 4 4 5 6 6 7 8 7 8 7 7 11 13 13 15 16 17 17 17 18 20 20 19 21 21 21 22 21 19 18 18 20 20
15 14 14 15 13 11 9 8 7 7 6 4 5 3 4 5 6 5 8 10 8 12 14 14 16 16 17 17 17 18 19 20 19 22 23 26 22 22 25 23 22 22 20
13 14 15 15 14 14 12 11 10 8 8 7 4 5 5 6 10 10 13 12 12 14 13 15 15 17 17 18 17 18 20 21 20 20 22 22 27 21 20 21 22 22 19
11 12 13 13 13 12 10 9 7 7 7 8 7 7 9 12 13 15 14 14 15 16 16 17 17 16 17 19 18 18 18 19 22 18 21 22 22 28 28 24 14 18 18
10 11 11 11 10 9 8 7 7 6 7 8 8 10 11 12 12 12 14 16 14 16 18 18 18 17 17 17 18 18 19 18 19 20 17 16 15 15 10 17 20 11 15
11 10 8 6 7 6 7 7 7 8 7 8 9 9 11 12 13 14 15 14 16 17 19 20 19 18 18 15 14 13 12 11 12 12 10 9 6 9 4 7 13 13 9
6 5 5 5 5 6 7 9 11 12 11 10 11 11 12 14 14 16 16 19 20 20 20 19 18 16 15 12 9 9 6 8 8 8 6 5 4 3 2 2 3 4 5
2 3 4 5 8 9 9 9 13 16 16 15 14 13 15 14 15 16 17 18 19 20 19 16 14 13 15 12 9 5 5 5 4 2 3 3 2 2 2 2 4 5 4
3 5 7 7 9 11 12 12 15 16 16 16 15 15 15 15 17 18 18 18 19 18 15 16 14 12 11 12 14 13 12 8 7 6 7 6 5 6 5 6 5 6 6
6 8 10 10 10 11 12 11 11 13 15 16 15 15 16 17 18 18 19 19 15 11 9 9 8 9 9 8 7 7 8 9 10 10 12 12 11 10 11 11 11 12 12
9 10 10 10 11 10 12 13 13 14 15 16 18 17 17 18 15 17 15 16 9 8 8 9 8 7 10 9 9 10 11 11 13 13 15 17 16 15 15 14 16 16 16
9 8 9 10 12 14 12 12 13 15 17 18 18 18 17 17 16 14 11 12 11 10 10 10 13 10 12 12 12 14 13 14 17 16 17 19 18 18 18 17 19 18 19
11 13 11 10 12 11 11 13 15 16 17 17 17 16 18 16 12 12 14 9 12 15 14 11 13 16 17 16 15 17 16 18 21 21 21 20 19 20 18 18 18 18 19
14 11 13 14 16 11 10 14 15 15 15 16 17 17 15 14 12 8 10 15 12 13 14 14 15 16 15 16 17 13 16 20 20 20 20 20 20 21 20 19 19 19 19
19 16 14 14 14 12 13 15 16 16 15 15 16 13 10 10 7 8 9 11 13 14 17 17 17 17 16 13 9 11 16 21 22 22 22 20 17 14 17 20 20 20 19
15 12 11 13 13 13 14 16 15 15 14 15 15 11 9 10 10 11 12 13 16 16 18 18 18 17 16 9 7 10 16 21 23 23 22 22 19 19 16 19 23 19 20
14 10 11 14 15 14 15 16 15 16 13 14 13 11 12 12 12 13 14 16 17 18 18 18 17 17 18 6 7 11 16 21 22 23 22 22 21 18 19 15 13 15 17
9 9 13 16 14 15 18 16 17 17 16 14 12 12 10 12 14 14 15 16 17 17 17 17 17 18 16 9 11 15 19 20 22 21 22 22 22 21 18 18 19 19 19
13 14 17 15 17 19 18 18 19 19 15 16 11 11 13 13 15 16 16 16 16 17 17 15 17 20 19 15 13 17 19 19 22 22 20 19 22 21 19 15 17 20 20
18 17 19 20 20 19 19 19 20 20 17 14 12 13 14 13 15 14 15 15 15 16 14 11 16 17 19 15 16 15 15 18 19 19 20 20 22 22 16 13 14 19 20
19 19 20 21 21 20 21 21 21 22 21 14 12 14 15 14 13 12 14 15 15 15 7 9 13 17 15 15 17 14 14 17 19 18 18 17 12 12 13 14 16 18 17
21 22 22 23 24 25 24 26 23 25 19 15 15 16 13 11 11 13 14 15 15 13 10 11 13 13 13 17 14 11 17 19 19 20 19 16 23 18 18 17 16 14 15
23 22 23 25 25 25 25 27 21 22 16 16 16 15 12 10 11 13 15 14 13 12 12 13 14 14 15 16 14 17 22 20 20 18 18 23 13 15 15 12 13 15 13
23 23 24 25 25 25 27 26 23 16 19 14 15 12 12 9 12 12 12 11 11 11 11 15 15 16 17 15 16 17 17 19 18 18 18 14 11 12 14 10 8 8 8
23 25 24 24 25 27 28 28 25 17 14 11 12 13 9 8 8 12 10 10 9 4 10 12 13 15 17 17 21 19 18 18 17 19 13 10 11 13 12 11 10 9 9
26 25 26 25 27 27 24 27 26 15 9 7 11 10 7 8 9 10 11 3 5 5 7 6 6 10 14 19 20 20 21 17 18 14 10 11 12 13 14 13 14 12 12
Wind_Direction
63 61 52 52 81 52 46 59 113 45 318 293 318 313 310 341 307 315 3 318 317 318 308 296 301 300 293 294 294 285 279 278 275 271 270 261 258 252 248 247 243 240 227
97 89 82 73 67 67 64 69 72 46 22 39 358 342 313 311 307 267 343 316 327 305 305 309 303 301 298 293 289 285 282 279 275 275 277 278 272 250 234 228 234 234 237
90 81 73 68 67 64 64 69 68 61 46 359 15 345 307 298 308 309 302 305 312 304 305 307 310 306 301 295 294 290 285 284 279 278 271 274 270 270 264 232 222 232 226
81 77 78 75 74 69 66 69 53 44 38 17 0 344 313 304 312 297 318 321 309 312 317 314 312 306 305 296 292 290 299 297 288 287 281 277 268 275 276 272 251 230 246
78 84 84 85 73 62 52 37 19 25 16 352 341 327 321 319 310 314 322 312 315 323 319 317 319 314 304 302 305 300 291 293 293 296 314 308 302 296 306 288 270 254 232
84 84 76 59 63 51 30 8 349 340 346 336 331 328 322 320 318 320 318 326 323 320 323 323 318 312 299 301 317 350 355 341 323 323 339 354 339 321 342 321 301 320 271
84 59 40 12 21 0 352 339 338 332 333 328 323 326 319 318 318 326 328 326 324 322 318 320 314 315 333 345 338 319 316 335 329 338 338 359 6 349 334 311 284 290 320
89 8 356 348 348 345 339 328 329 329 332 330 328 328 327 326 326 326 323 318 317 320 322 322 349 3 30 14 358 358 339 306 288 269 271 295 300 316 317 321 317 304 267
317 340 343 360 343 338 336 338 334 329 330 324 323 328 325 319 312 325 323 321 323 321 356 29 42 37 21 10 7 347 336 293 280 275 245 244 245 242 240 250 264 288 299
295 335 332 339 341 334 327 318 310 316 323 331 332 318 318 316 324 323 318 323 329 13 6 34 19 359 350 331 318 297 306 317 320 308 300 287 273 262 251 239 234 225 247
314 314 316 312 304 318 320 326 328 328 324 326 323 319 319 315 316 315 323 329 343 345 330 319 318 311 293 296 291 284 282 280 279 278 278 283 282 283 285 265 244 240 232
300 304 300 312 331 325 329 325 327 325 334 327 326 323 317 318 321 343 340 324 309 293 302 289 292 306 307 304 300 288 297 297 295 294 294 295 294 293 289 284 281 282 284
298 316 330 319 315 320 320 327 332 334 328 324 322 322 322 338 325 321 308 307 302 309 308 321 320 312 312 307 303 298 304 310 309 306 301 297 295 291 290 289 288 284 285
310 305 318 312 324 317 327 327 324 322 320 322 319 321 344 331 335 339 351 317 317 312 303 297 298 305 310 304 296 309 317 309 301 298 293 290 289 289 290 289 290 288 284
327 335 333 325 311 327 321 317 321 318 317 313 318 334 342 312 299 291 292 304 301 315 315 312 309 311 310 317 338 318 313 307 303 299 292 288 291 303 286 282 284 284 282
327 340 332 319 314 313 314 317 310 311 308 316 316 339 318 313 309 307 309 317 320 318 318 313 312 309 306 76 34 346 314 305 300 298 295 293 292 275 264 253 252 259 277
328 336 322 310 298 306 308 305 309 305 310 303 314 312 301 318 320 316 316 310 315 317 313 311 312 314 313 59 1 343 318 305 296 295 300 300 296 302 300 313 300 276 258
330 311 290 283 303 304 297 308 310 310 304 307 318 321 315 301 299 306 310 322 317 315 313 314 322 318 316 41 0 340 313 304 302 301 300 301 303 303 296 286 283 278 272
284 279 280 302 297 294 302 315 309 310 315 309 320 299 287 302 309 311 325 316 315 312 314 326 333 324 319 341 339 330 313 310 310 305 304 298 291 290 292 292 287 286 280
285 298 306 300 305 305 312 308 307 310 301 297 302 300 303 302 303 320 315 312 311 310 325 322 317 310 304 309 317 311 310 311 303 307 305 298 288 292 300 285 288 292 290
299 306 309 315 311 310 308 302 299 294 301 305 304 300 299 301 317 310 308 311 312 315 347 305 308 305 309 307 308 310 309 310 312 308 303 299 314 334 320 306 292 283 297
314 319 319 316 316 317 312 304 301 301 315 324 305 296 299 306 305 304 304 312 316 322 334 317 311 312 317 313 327 326 323 321 313 308 302 311 324 319 312 300 290 294 293
320 324 319 317 319 319 312 307 321 315 309 301 299 296 298 296 291 312 315 317 320 324 319 318 314 317 323 319 333 338 330 323 319 309 327 313 311 310 300 296 291 286 273
323 319 322 320 318 316 319 318 309 307 291 300 295 299 294 316 307 314 317 325 326 326 318 317 322 325 323 327 340 332 326 327 323 329 313 308 312 311 307 317 321 306 314
322 324 314 310 316 321 319 319 320 316 299 313 310 291 287 302 321 305 322 314 309 299 310 312 320 324 323 332 328 327 329 328 328 317 313 344 350 338 339 346 344 344 346
317 316 315 324 321 317 326 329 331 330 338 325 291 291 315 316 305 300 308 284 270 251 245 263 297 317 322 326 328 330 330 329 332 322 353 354 353 347 346 351 350 357 359